Regional Weather Roundup
Issued by NWS

Home | Current Version | Previous Version | Graphics & Text | Print | Product List | Glossary On
Versions: 1 2 3 4 5 6 7 8 9 10 11 12 13 14 15 16 17 18 19 20 21 22 23 24 25 26 27 28 29 30 31 32 33 34 35 36 37 38 39 40 41 42 43 44 45 46 47 48 49 50
000
ASUS43 KLOT 282204
RWRIL

ILLINOIS REGIONAL WEATHER ROUNDUP
NATIONAL WEATHER SERVICE CHICAGO/ROMEOVILLE IL
500 PM CDT SUN MAY 28 2017

NOTE: "FAIR" INDICATES FEW OR NO CLOUDS BELOW 12,000 FEET WITH NO
SIGNIFICANT WEATHER AND/OR OBSTRUCTIONS TO VISIBILITY.

* THESE STATIONS ARE NOT UNDER NWS QUALITY CONTROL. THEY ALSO MAY NOT
  REPORT WEATHER SUCH AS PRECIPITATION OR FOG.

ILZ001-002-007-009-015-016-024-282300-
NORTHWEST ILLINOIS

CITY           SKY/WX    TMP DP  RH WIND       PRES   REMARKS
MOLINE         MOSUNNY   78  47  33 NW18G25   29.77S
STERLING*      MOSUNNY   75  54  47 W17G26    29.76R
SAVANNA*       SUNNY     77  46  33 W14G21    29.75S
$$

ILZ003-004-008-010-011-017-018-282300-
NORTH CENTRAL ILLINOIS

CITY           SKY/WX    TMP DP  RH WIND       PRES   REMARKS
ROCKFORD       PTSUNNY   73  56  54 W7        29.74F
FREEPORT*      SUNNY     74  49  40 W17G23    29.76S
ROCHELLE*      MOSUNNY   73  55  53 W15       29.76S
DE KALB*       MOSUNNY   74  55  51 W10G17    29.75F
$$

ILZ005-006-012>014-019>023-282300-
NORTHEAST ILLINOIS

CITY           SKY/WX    TMP DP  RH WIND       PRES   REMARKS
CHICAGO-OHARE  MOSUNNY   76  51  41 W13G23    29.73R
CHICAGO-MIDWAY MOSUNNY   76  52  43 W17       29.73R
AURORA         SUNNY     77  54  44 W15       29.75S
LANSING*       SUNNY     73  62  68 NW5       29.74S
JOLIET*        SUNNY     77  52  41 NW7G17    29.76R
WAUKEGAN       SUNNY     74  53  48 VRB7      29.71F
DUPAGE AIRPORT SUNNY     74  53  48 W14G21    29.74R
WHEELING       SUNNY     75  53  46 W10       29.74R
MORRIS*        SUNNY     77  52  41 NW16      29.74F
ROMEOVILLE*    SUNNY     76  56  48 NW16G25   29.75S
NORTHERLY ISL    N/A     61  53  75 S3          N/A
$$

LMZ740>746-282300-
SOUTHERN LAKE MICHIGAN

STATION/POSITION SKY/WX   TEMP    WIND        PRES    VSBY  WAVE
                          AIR SEA DIR/SP/G                  HT/PER
                          (F)     (DEG/KT/KT) (MB)    (MI)  (FT/S)
SOUTHERN BUOY              51 50  320/  6/  6 1006.7          0
WILMETTE HARBOR            56 55  150/  4/  6   N/A           1
HARRISON CRIB              59     190/  1/  2   N/A
BURNHAM HARBOR             61     130/  1/  4   N/A
CALUMET HARBOR             62      60/  1/  3 1006.8R
BURNS HARBOR               58     290/  2/  3 1007.8R
MICHIGAN CITY              57     260/  2/  2   N/A
MICHIGAN CITY 6N           56 57  270/  2/  4   N/A           1
ST. JOSEPH                 59 61  350/  2/  4 1007.1R         1/ 3
$$

ILZ025>027-034>036-040-047-049-050-058-095>099-282300-
WEST-CENTRAL ILLINOIS

CITY           SKY/WX    TMP DP  RH WIND       PRES   REMARKS
QUINCY         MOSUNNY   79  52  38 W12       29.84R
GALESBURG*     PTSUNNY   78  50  37 W20G30    29.79S
MACOMB*        MOSUNNY   79  51  36 W18G25    29.83S
JACKSONVILLE*  PTSUNNY   78  52  39 W16       29.84R
PITTSFIELD*    PTSUNNY   78  54  42 NW7       29.86S
$$

ILZ028>032-037-038-041>044-048-051>054-059>061-282300-
CENTRAL ILLINOIS

CITY           SKY/WX    TMP DP  RH WIND       PRES   REMARKS
PONTIAC        MOSUNNY   77  52  40 W20       29.78S
BLOOMINGTON    MOSUNNY   77  53  43 W17       29.81R
DECATUR        SUNNY     77  54  44 W13       29.81R
PEORIA         PTSUNNY   79  52  38 W12G20    29.79S
LACON*         PTSUNNY   77  54  44 NW9       29.76S
LINCOLN*       MOSUNNY   78  52  39 NW8       29.81R
SPRINGFIELD    MOSUNNY   82  52  35 NW15      29.83R HX  81
TAYLORVILLE    NOT AVBL
$$

ILZ033-039-045-046-055>057-062-063-282300-
EAST-CENTRAL ILLINOIS

CITY           SKY/WX    TMP DP  RH WIND       PRES   REMARKS
CHAMPAIGN      SUNNY     79  54  41 W23G29    29.78R
RANTOUL*       MOSUNNY   80  55  43 NW20G26   29.78R HX  80
MATTOON        MOSUNNY   78  61  55 NW17G26   29.79R HX  80
PARIS*         PTSUNNY   77  62  59 W18G24    29.77R
$$

ILZ079-100>102-282300-
SOUTHWEST ILLINOIS

CITY           SKY/WX    TMP DP  RH WIND       PRES   REMARKS
ALTON          PTSUNNY   77  57  50 W14       29.86R
BELLEVILLE     MOSUNNY   78  62  56 NW13      29.86S HX  80
CAHOKIA*       MOSUNNY   80  55  42 NW13      29.86R HX  80
SPARTA*        MOSUNNY   76  63  64 W10       29.88S
$$

ILZ064>066-069>071-074>076-080>082-084>086-088>090-092>094-282300-
SOUTH-CENTRAL ILLINOIS

CITY           SKY/WX    TMP DP  RH WIND       PRES   REMARKS
CARBONDALE     CLOUDY    76  64  66 W7        29.86S
CAIRO*         MOSUNNY   75  67  74 S9        29.87S
EFFINGHAM*     CLOUDY    76  66  71 SW13      29.83R
MARION         CLOUDY    77  68  73 NW8       29.87S
MT. VERNON       N/A     74  64  71 SW9       29.86R
CENTRALIA*     CLOUDY    75  66  72 W13       29.84S
SALEM*         CLOUDY    76  63  64 W12       29.85R
$$

ILZ067-068-072-073-078-083-087-091-282300-
SOUTHEAST ILLINOIS

CITY           SKY/WX    TMP DP  RH WIND       PRES   REMARKS
LAWRENCEVILLE  CLOUDY    77  64  64 W16       29.82R
FLORA*         PTSUNNY   77  65  67 W9        29.84S
FAIRFIELD*     CLOUDY    73  65  75 SW7       29.83F
HARRISBURG*    PTSUNNY   77  66  68 NW13      29.86S
ROBINSON*      MOSUNNY   76  64  66 SW16      29.81R
CARMI*         PTSUNNY   76  65  69 W12       29.84S
$$

ABBREVIATIONS USED IN REMARKS
   TC - TEMPERATURE IN CELSIUS
  WCI - WIND CHILL INDEX
   HX - HEAT INDEX
  VSB - VISIBILITY
$$





USA.gov is the U.S. government's official web portal to all federal, state and local government web resources and services.